Regional Weather Roundup
Issued by NWS New Orleans/Baton Rouge, LA

Home | Current Version | Previous Version | Text Only | Print | Product List | Glossary Off
Versions: 1 2 3 4 5 6 7 8 9 10 11 12 13 14 15 16 17 18 19 20 21 22 23 24 25 26 27 28 29 30 31 32 33 34 35 36 37 38 39 40 41 42 43 44 45 46 47 48 49 50

518
ASUS44 KLIX 011401
RWRLIX
NEW ORLEANS REGIONAL WEATHER ROUNDUP
NATIONAL WEATHER SERVICE NEW ORLEANS LA
900 AM CDT MON SEP 01 2014

NOTE: "FAIR" INDICATES FEW OR NO CLOUDS BELOW 12,000 FEET WITH NO
      SIGNIFICANT WEATHER AND/OR OBSTRUCTIONS TO VISIBILITY.
      SKY/WX - SKY CONDITION AND SIGNIFICANT WEATHER.
      TMP - AIR TEMPERATURE.     DP    - DEWPOINT TEMPERATURE.
      RH  - RELATIVE HUMIDITY.   PRES  - PRESSURE.
      HI  - HEAT INDEX.          WCI   - WIND CHILL INDEX.

*  THESE STATIONS ARE NOT NWS OR FAA STATIONS AND ARE NOT UNDER
   NWS QUALITY CONTROL.

LAZ038-040-048-061>063-065>067-069-011500-
SOUTHEAST LOUISIANA

CITY           SKY/WX    TMP DP  RH WIND       PRES   REMARKS
N.O. AUDUBON   NOT AVBL
N.O. INTL ARPT PTSUNNY   85  76  74 SE12      30.04S
N.O. LAKEFRONT SUNNY     85  77  77 SE10      30.05S HX  95
N.O. DOWNTOWN*   N/A     84  75  74 SE7       30.05F
SLIDELL        MOSUNNY   85  77  77 E5        30.05S HX  95
BATON ROUGE    SUNNY     82  77  84 E7        30.04S
BOOTHVILLE     MOSUNNY   86  77  74 SE9       30.06R HX  97
BELLE CHASSE   MOSUNNY   83  72  69 SW7       30.04S
BOGALUSA*        N/A     81  74  79 CALM      30.08S
GALLIANO*      NOT AVBL
NEW ROADS*       N/A     82  78  88 SE7       30.03F
GONZALES*        N/A     83  81  92 E3        30.03F HX  97
HAMMOND*       NOT AVBL
HOUMA*         NOT AVBL
PORT FOURCHON* SUNNY     82  75  78 SE12      30.06R HAZE

$$

MSZ070-080>082-011500-
SOUTHERN MISSISSIPPI

CITY           SKY/WX    TMP DP  RH WIND       PRES   REMARKS
MCCOMB         PTSUNNY   78  76  93 SE6       30.07F
GULFPORT       SUNNY     86  76  71 SE14      30.06S HX  96
BILOXI         MOSUNNY   87  76  70 SE8       30.07R HX  97
PASCAGOULA     MOSUNNY   83  77  82 VRB3      30.08R
STENNIS ARPT*  MOSUNNY  N/A N/A N/A SE6       30.07R

$$

COASTAL OBSERVATIONS
LAKE AND NEARSHORE STATIONS

STATION/POSITION TIME  TEMP    WIND        PRES    WAVE
                       AIR SEA DIR/SP/G            HT/PER
                 (UTC) (F)     (DEG/KT/KT) (MB)    (FT/S)
PASCAGOULA       1300   87     160/  4/  9 1017.9
WAVELAND YACHT   1300   84     150/ 12/ 13 1017.4
GRAND ISLE       1300   85 84  130/  9/ 14 1017.9
SOUTHWEST PASS   1300   81 90  190/ 13/ 19 1018.2
NEW CANAL        1300   84 81   CALM  /  4 1017.9
SHELL BEACH      1300   84 80  130/  9/ 11 1017.5

OFFSHORE STATIONS

STATION/POSITION TIME  TEMP    WIND        PRES    WAVE
                       AIR SEA DIR/SP/G            HT/PER
                 (UTC) (F)     (DEG/KT/KT) (MB)    (FT/S)
64 S DAUPHIN ISL 1400   85 85  130/ 14/ 16 1018.3

$$




USA.gov is the U.S. government's official web portal to all federal, state and local government web resources and services.